Charlottetown, Prince Edward Island

9:44 PM AST on February 19, 2017 (GMT -0400)
Charlottetown | | Change Station

Elev 177 ft 46.28 °N, 63.13 °W | Updated 44 minutes ago

Light Snow
Light Snow
28 °F
Feels Like 22 °F
N
6
Wind Variable Wind from NNW

Today
High -- | Low -- °F
--% Chance of Precip.
Yesterday
High -- | Low -- °F
Precip. -- in
Pressure 29.72 in
Visibility 15.0 miles
Clouds Mostly Cloudy 600 ft
Mostly Cloudy 1500 ft
Overcast 3800 ft
Windchill 22 °F
Dew Point 27 °F
Humidity 93%
Rainfall 0.00 in
Snow Depth Not available.
7:08 AM 5:44 PM
Last Quarter, 38% visible
METAR CYYG 200100Z 33005KT 15SM -SN BKN006 BKN015 OVC038 M02/M03 A2971 RMK SF5SC2SC1 SLP064
Pressure 29.72 in
Visibility 15.0 miles
Clouds Mostly Cloudy 600 ft
Mostly Cloudy 1500 ft
Overcast 3800 ft
Windchill 22 °F
Dew Point 27 °F
Humidity 93%
Rainfall 0.00 in
Snow Depth Not available.
7:08 AM 5:44 PM
Last Quarter, 38% visible
METAR CYYG 200100Z 33005KT 15SM -SN BKN006 BKN015 OVC038 M02/M03 A2971 RMK SF5SC2SC1 SLP064

Get Your Daily Forecast Email!

Thanks for signing up!

Be on the lookout for a verification email in your inbox.

You'll start receiving the daily forecast at 8 AM.

×

10-Day Weather Forecast

Almanac

Astronomy

Feb. 19, 2017 Rise Set
Actual Time
Civil Twilight
Nautical Twilight
Astronomical Twilight
Moon
Length of Visible Light
Length of Day
Tomorrow will be .
, % of the Moon is Illuminated

Today's Extremes

Country Highs Country Lows

Community

WunderPhotos

Upload Photos

1,962,540 photos uploaded!

WunderBlog® & News

Nearby

Air Quality

  Air Quality AQ Index Pollutant
Not available.

Snow Depth

Station Depth Elevation

Earthquake Activity

City Distance Mag. Time & Date
Minimum magnitude displayed is 2.5.

Coastal Water Temperatures

Place Temperature

Stations

Nearby Weather Stations

Station Location Temp. Windchill Dew Point Humidity Wind Precip. Elev Updated Type
                   

Watches & Warnings

There are currently no watches in effect.